Regional Weather Roundup
Issued by NWS

Home | Current Version | Previous Version | Graphics & Text | Print | Product List | Glossary On
Versions: 1 2 3 4 5 6 7 8 9 10 11 12 13 14 15 16 17 18 19 20 21 22 23 24 25 26 27 28 29 30 31 32 33 34 35 36 37 38 39 40 41 42 43 44 45 46 47 48 49 50
191
ASUS43 KDMX 280903
RWRIA

WEATHER ROUNDUP FOR IOWA
NATIONAL WEATHER SERVICE DES MOINES IA
400 AM CDT THU JUL 28 2016

NOTE: "FAIR" INDICATES FEW OR NO CLOUDS BELOW 12,000 FEET WITH NO
SIGNIFICANT WEATHER AND/OR OBSTRUCTIONS TO VISIBILITY.

* - THESE STATIONS ARE NOT NWS STATIONS...THUS NOT UNDER NWS
QUALITY CONTROL.  THEY ALSO DO NOT REPORT WEATHER SUCH
AS PRECIPITATION OR FOG.

IAZ001>003-012>014-020>022-031>034-043>046-281000-
   NORTHWEST IOWA

CITY           SKY/WX    TMP DP  RH WIND       PRES   REMARKS
CARROLL *      CLEAR     66  64  94 N6        29.98F
CHEROKEE *     CLEAR     65  64  99 N3        30.00F
DENISON *      CLEAR     66  66 100 N8        29.97S
LE MARS *      CLEAR     64  63  94 N5        30.02F
SHELDON *      CLEAR     63  61  94 NE7       30.00F
SIOUX CITY     CLEAR     71  63  75 N8        30.00F
SPENCER        CLEAR     64  61  90 N8        30.00F
STORM LAKE *   CLEAR     64  63  94 W7        30.01S
$$

IAZ055>058-069>071-079>083-090>094-281000-
   SOUTHWEST IOWA

CITY           SKY/WX    TMP DP  RH WIND       PRES   REMARKS
ATLANTIC *     PTCLDY    70  68  94 CALM      29.97R
CLARINDA *     FOG       68  68 100 MISG      29.97S VSB 1
COUNCIL BLFS * PTCLDY    70  68  94 N6        29.98F
CRESTON *      PTCLDY    68  66  94 CALM      29.97F
HARLAN  *      CLEAR     68  68 100 N5        30.01S
LAMONI         CLEAR     68  68 100 N3        29.94F
RED OAK *      PTCLDY    68  66  94 CALM      29.96S
SHENANDOAH *   CLEAR     66  66 100 CALM      29.96F FOG
$$

IAZ047>049-059>061-072>074-084-281000-
   CENTRAL IOWA

CITY           SKY/WX    TMP DP  RH WIND       PRES   REMARKS
AMES           CLEAR     68  68 100 N6        29.95R
ANKENY *         N/A    N/A N/A N/A MISG        N/A
BOONE *          N/A     66  64  94 N7        29.96R
CHARITON *       N/A    N/A N/A N/A MISG        N/A
DES MOINES     MOCLDY    74  70  87 N6        29.94R
GRINNELL*      MOCLDY    65  64  95 NW5       29.94R FOG
KNOXVILLE *    PTCLDY    68  66  94 SW3       29.92S
MARSHALLTOWN   CLEAR     66  65  96 NW6       29.94R
NEWTON *       PTCLDY    70  70 100 NW6       29.93S
PELLA *        CLEAR     68  67  96 CALM      29.93S
PERRY *          N/A     68  67  96 N7        29.97R
$$

IAZ004>006-015-016-023>025-035-036-281000-
   NORTH CENTRAL IOWA

CITY           SKY/WX    TMP DP  RH WIND       PRES   REMARKS
ALGONA *       CLEAR     64  64 100 N6        29.98S
ESTHERVILLE    PTCLDY    62  62 100 NW6       30.00F
FORT DODGE *   CLEAR     66  64  94 N5        29.97F
MASON CITY     MOCLDY    65  64  97 NW7       29.97F
FOREST CITY *    N/A     63  63 100 N7        29.98S
IOWA FALLS *     N/A     67  65  93 NW8       29.97R
$$

IAZ007>011-017>019-026>030-037>042-050>054-066-281000-
   NORTHEAST IOWA

CITY           SKY/WX    TMP DP  RH WIND       PRES   REMARKS
CEDAR RAPIDS   CLEAR     65  65 100 CALM      29.90F FOG
CHARLES CITY * MOCLDY    66  66 100 NW6       29.94F FOG
CLINTON *      PTCLDY    69  68  96 CALM      29.90S
DECORAH *      CLOUDY    68  68 100 NW5       29.92R
DUBUQUE        CLEAR     66  65  96 SW3       29.91F
MONTICELLO *   FOG       64  64 100 CALM      29.90F VSB 1/4
OELWEIN *      MOCLDY    66  66 100 NW7       29.93S FOG
WATERLOO       CLEAR     66  65  96 NW9       29.92R
$$

IAZ064-065-067-068-078-281000-
   EAST CENTRAL IOWA

CITY           SKY/WX    TMP DP  RH WIND       PRES   REMARKS
DAVENPORT      CLEAR     67  66  97 CALM      29.90S FOG
IOWA CITY      CLEAR     68  66  93 W3        29.91F
MT. PLEASANT * CLEAR     71  71 100 W5        29.90F
MUSCATINE *    CLEAR     68  66  94 N5        29.89F
QUAD CITIES    PTCLDY    71  67  87 CALM      29.88F
$$

IAZ062-063-075>077-085>089-095>099-281000-
   SOUTHEAST IOWA

CITY           SKY/WX    TMP DP  RH WIND       PRES   REMARKS
BURLINGTON     PTCLDY    70  68  93 W3        29.89F
FAIRFIELD *    CLEAR     66  66 100 W5        29.91F FOG
KEOKUK *       PTCLDY    72  70  94 CALM      29.88F
OSKALOOSA *      N/A     65  64  97 CALM      29.92S
CENTERVILLE *    N/A     64  64 100 CALM      29.95S FOG
OTTUMWA        FOG       65  64  97 W3        29.91S VSB 1/2
WASHINGTON *   CLEAR     64  64 100 CALM      29.92F FOG
$$

ABBREVIATIONS USED IN REMARKS
   TC - TEMPERATURES IN CELSIUS
  WCI - WIND CHILL INDEX
   HX - HEAT INDEX
  VSB - VISIBILITY
$$





USA.gov is the U.S. government's official web portal to all federal, state and local government web resources and services.